sat.trackr.live / text

‹ back to catalog

SATELIOT_3

NORAD 60552 · 2024-149CN

PAYLOAD ACTIVE UNKNOWN

§ Identity

Operator
Country
SPN
Launch date
2024-08-16
Launch site
AFWTR
Launch vehicle
Mass (kg)
RCS (m²)

External: N2YO · Heavens-Above · Gunter

§ Orbital elements

Epoch: 2026-09-22T17:05:19.373856Z

Period
96.10 min
Inclination
97.6764°
Eccentricity
0.0006575
Mean motion
14.98380957 rev/d
Perigee alt
567.3 km
Apogee alt
576.5 km
Semi-major
6,950.0 km
B*
8.6755e-5
RAAN
340.8509°
Arg perigee
106.8892°
Mean anomaly
253.3052°
Rev number
11,468

§ Raw data

SATELIOT_31 60552U 24149CN  26265.71202979  .00000976  00000+0  86755-4 0  99922 60552  97.6764 340.8509 0006575 106.8892 253.3052 14.98380957114689

JSON: /api/v1/satellites/60552 · /tle

For live sub-satellite position, see the globe view (requires WebGL).

§ Visibility from observer

Set your observer location to see the next 7 days of passes ≥ 10°. The values pass through the URL so the page stays shareable.

No JS? Fill the form by hand. The geolocation button needs JavaScript.